User: anonymous   Login
Location: Unspecified
(0.0000°N, 0.0000°E)
Time: 02:26:45
(UTC+02:00)
Language:

Cosmos 1980 Rocket - Orbit

View from above orbital plane
View from above orbital plane
View from above satellite
View from above satellite

Ground track
Ground track

The orbit data is extracted from the following two-line orbital elements,

1 19650U 88102B   16127.45965711  .00000292  00000-0  17277-3 0  9995
2 19650  70.9978 150.3181 0012157  80.9454 279.3044 14.15738777418426
Epoch (UTC): 06 May 2016 11:01:54
Eccentricity: 0.0012157
inclination: 70.9978°
perigee height: 831 km
apogee height: 848 km
right ascension of ascending node: 150.3181°
argument of perigee: 80.9454°
revolutions per day: 14.15738777
mean anomaly at epoch: 279.3044°
orbit number at epoch: 41842

The dashed part of the orbit path shows where the satellite is in the earth's shadow,  

DLR